www.pogodaiklimat.ru

Погода и климат >> Архив погоды >> Россия >> город Москва >> Москва


АРХИВ ПОГОДЫ в Москве

Время (UTC), дата Ветер
(напр.,м/с)
 
Видим.   Явления Облачность Т
(С)
Тd
(С)
f
(%)
Тe
(С)
Тes
(С)
Комфортность P
(гПа)
Po
(гПа)
Тmin
(С)
Tmax
(С)
R
(мм)
R24
(мм)
S
(см)
18 17.05 СВ 2 10 км 10/10 1000 м
[Sc]
+9.1 +3.3 67 +8 +8 холодно 1022.7 1003.4 +9.8
21 17.05 С 2 н/о 8/4 1000 м
[Sc Ac trans]
+7.9 +3.7 75 +6 +6 холодно 1022.3 1002.9
00 18.05 С 2 н/о ясно +6.7 +3.6 81 +5 +5 прохладно 1021.4 1002.0
03 18.05 С 2 н/о ясно +6.7 +3.6 81 +5 +6 холодно 1021.4 1002.0
06 18.05 С 2 10 км ясно +6.7 +3.4 79 +5 +13 очень
холодно
1021.1 1001.7 +6.4
09 18.05 С 2 10 км ясно +16.9 +4.9 45 +17 +32 опасность
простуды
1020.4 1001.6
12 18.05 СВ 2 10 км 8/8 1000 м
[Cu med, cong]
+18.5 +2.1 33 +19 +21 тепло 1019.5 1000.9
15 18.05 10 км н/о +19.5 +1.4 30 +21 +22 комфорт 1018.9 1000.3
18 18.05 штиль 0 10 км 3/3 600 м
[Sc]
+13.2 +5.5 60 +13 +13 по сезону 1019.5 1000.5 +20.0
21 18.05 штиль 0 н/о ясно +9.0 +6.5 84 +8 +8 прохладно 1020.1 1000.9
00 19.05 штиль 0 н/о дымка ясно +6.7 +5.9 95 +6 +6 прохладно 1019.9 1000.5
03 19.05 штиль 0 4000 м дымка 5/0
[Ci fib]
+7.5 +6.9 96 +6 +8 холодно 1019.6 1000.3 +6.1
06 19.05 СВ 1 10 км 8/0
[Ci fib]
+15.5 +7.9 61 +16 +24 тепло 1019.5 1000.7 +6.1
09 19.05 В 2 10 км 8/8 600 м
[Cu Sc]
+18.9 +6.1 43 +20 +23 тепло 1018.6 1000.1
12 19.05 СВ 2 10 км 8/6 600 м
[Cu Sc Ci fib]
+21.2 +5.4 36 +22 +26 комфорт 1017.4 998.9
15 19.05 штиль 0 10 км 5/0
[Ac trans]
+19.6 +5.7 40 +20 +23 тепло 1016.8 998.3
18 19.05 штиль 0 10 км 3/0
[Ac trans]
+14.7 +7.2 61 +15 +15 по сезону 1017.3 998.5 +21.5
21 19.05 штиль 0 н/о дымка ясно +10.6 +8.6 87 +10 +10 по сезону 1017.6 998.5
00 20.05 штиль 0 н/о дымка ясно +8.8 +7.9 94 +8 +8 по сезону 1017.2 998.0
03 20.05 штиль 0 4000 м дымка 10/10 600 м
[Sc]
+11.4 +10.0 91 +11 +11 по сезону 1016.0 997.0 +8.7
06 20.05 З 1 10 км 9/9 600 м
[Sc]
+17.3 +8.3 55 +18 +19 тепло 1015.3 996.7 +8.7
09 20.05 ЮЗ 1 10 км 9/6 1000 м
[Sc Ac trans]
+20.2 +6.3 40 +22 +26 комфорт 1014.3 995.9
12 20.05 З 1 10 км 9/9 1000 м
[Sc]
+22.1 +4.9 33 +22 +24 комфорт 1012.2 993.9
15 20.05 ЮЗ 1 10 км 9/9 600 м
[Sc]
+21.3 +5.2 35 +22 +22 комфорт 1010.4 992.1
18 20.05 штиль 0 10 км 9/8 600 м
[Sc Ac trans]
+18.3 +8.0 51 +18 +18 тепло 1009.5 991.1 +23.3
21 20.05 штиль 0 н/о 10/10 1000 м
[Sc]
+16.2 +10.2 68 +16 +16 тепло 1009.0 990.4
00 21.05 С 2 н/о {дождь} 10/10 600 м
[Sc]
+15.2 +12.2 82 +15 +15 тепло 1008.4 989.8
03 21.05 С 3 4000 м дымка {дождь} 10/4 300 м
[Frnb Ac As]
+11.2 +9.7 90 +9 +9 прохладно 1008.9 990.1 +11.1 0.4
06 21.05 С 4 10 км {дождь} 10/10 300 м
[Frnb]
+10.1 +7.5 84 +7 +7 очень
холодно
1009.7 990.7 +10.1
09 21.05 С 3 10 км 10/10 600 м
[Sc]
+10.6 +4.7 67 +9 +9 очень
холодно
1010.6 991.6
12 21.05 С 3 10 км 10/10 600 м
[Sc]
+11.0 +2.5 56 +9 +9 очень
холодно
1011.1 992.1
15 21.05 С 2 10 км 8/8 600 м
[Sc]
+12.8 +1.0 44 +12 +13 прохладно 1010.4 991.6
18 21.05 С 2 10 км ясно +10.2 +0.5 51 +9 +9 холодно 1011.8 992.8 +12.8
21 21.05 С 2 н/о 8/0
[Ci fib]
+7.9 -1.4 52 +6 +6 холодно 1012.9 993.7
00 22.05 С 2 н/о ясно +6.1 -1.6 58 +4 +4 холодно 1013.2 993.9
03 22.05 С 2 10 км ясно +5.4 -1.4 62 +3 +4 очень
холодно
1013.9 994.5 +4.7
06 22.05 С 3 10 км 4/0
[Ci fib]
+9.8 -4.6 36 +8 +15 холодно 1014.4 995.3 +4.7
09 22.05 С 2 10 км 5/3 600 м
[Cu hum Ci fib]
+11.9 -3.4 34 +11 +21 опасность
простуды
1014.0 995.0
12 22.05 С 2 10 км 6/4 600 м
[Cu hum Ci fib]
+14.5 -2.8 30 +14 +21 холодно 1013.1 994.3
15 22.05 10 км н/о +13.7 -3.0 31 +13 +14 прохладно 1012.6 993.8
18 22.05 штиль 0 10 км 4/4 600 м
[Sc]
+11.0 -0.7 44 +11 +11 прохладно 1013.1 994.1 +14.9
21 22.05 штиль 0 н/о 9/9 600 м
[Sc]
+7.9 +2.0 66 +7 +7 холодно 1013.5 994.3
00 23.05 н/о н/о +7.7 +2.9 72 +7 +7 прохладно 1013.2 994.0
03 23.05 ЮВ 1 10 км 8/4 600 м
[Sc Ac trans]
+10.5 +0.2 49 +11 +11 по сезону 1012.7 993.7 +6.3
06 23.05 Ю 1 10 км 9/6 600 м
[Sc Ac trans]
+13.5 +0.9 42 +14 +16 по сезону 1012.5 993.7 +6.3
09 23.05 Ю 1 10 км 8/6 600 м
[Sc Ac trans]
+18.2 +2.4 35 +19 +24 тепло 1011.3 992.8
12 23.05 ЮВ 1 10 км 8/4 600 м
[Sc Ac trans]
+19.2 +3.6 36 +21 +25 комфорт 1010.5 992.1
15 23.05 штиль 0 10 км 6/3 600 м
[Sc Ac trans Ci fib]
+20.2 +5.3 38 +21 +23 комфорт 1009.6 991.3
18 23.05 штиль 0 10 км 5/4 600 м
[Sc Ac trans]
+15.6 +8.7 63 +15 +15 по сезону 1010.8 992.2 +21.2
21 23.05 штиль 0 н/о ясно +10.1 +7.6 84 +9 +9 прохладно 1011.4 992.4
00 24.05 штиль 0 н/о ясно +9.2 +6.0 80 +9 +9 по сезону 1011.7 992.6
03 24.05 штиль 0 10 км ясно +10.4 +7.5 82 +10 +11 прохладно 1012.3 993.3 +8.2
06 24.05 штиль 0 10 км ясно +20.0 +5.5 39 +20 +32 тепло 1012.2 993.8 +8.2
09 24.05 ЮЗ 1 10 км 3/3 600 м
[Cu hum]
+22.0 +2.2 27 +22 +34 комфорт 1012.1 993.8
12 24.05 СВ 1 10 км 8/4 600 м
[Cu hum Ci fib]
+22.6 +2.6 27 +22 +29 комфорт 1011.5 993.2
15 24.05 штиль 0 10 км 10/10 600 м
[Cb cap]
+21.0 +4.8 35 +21 +21 комфорт 1011.1 992.7

 

Местоположение метеостанции Москва (город Москва, Россия): широта 55.83 долгота 37.62 высота над уровнем моря 156 м.

В архиве по умолчанию представлена погода в Москве за последнюю неделю. Архивные данные за месяц целиком и за предыдущие месяцы, начиная с января 2011 года, Вы можете получить, выбрав интересующий диапазон дат из раскрывающегося списка и нажав кнопку "Ввод!".

Внимание! Время в таблицах - всемирное. Для получения местного времени необходимо прибавить поправку, которая в Москве равна 3 ч.

Смотрите также архив погоды в соседних городах и на ближайших метеорологических станциях:

Погода в Москве (Балчуг) (город Москва, Россия) (9 км)
Погода в Москве (Тушино) (город Москва, Россия) (12 км)
Погода в Москве (Строгино) (город Москва, Россия) (14 км)
Погода в Шереметьево (Московская область, Россия) (20 км)
Погода в Немчиновке (город Москва, Россия) (21 км)
Погода в Подмосковной (Московская область, Россия) (29 км)
Погода в Внуково (Московская область, Россия) (33 км)
Погода в Михайловском (Московская область, Россия) (49 км)
Погода в Ново-Йерусалиме (Московская область, Россия) (51 км)
Погода в Домодедово (Московская область, Россия) (51 км)

Пояснения к столбцам:

Ветер - указаны скорость ветра в м/с - средняя за 10 мин, порывы в срок и между сроками (в фигурных скобках) и направление, откуда дует ветер: С - северный, СВ - северо-восточный, В - восточный, ЮВ - юго-восточный, Ю - южный, ЮЗ - юго-западный, З - западный, СЗ - северо-западный.
Видимость - горизонтальная дальность видимости в метрах или километрах. При видимости от 1 до 10 км при отсутствии осадков обычно наблюдается дымка, при ухудшении видимости до 1 км и менее - туман. В сухую погоду видимость может ухудшаться дымом, пылью или мглою.
Явления - указаны атмосферные явления, наблюдавшиеся в срок или в последний час перед сроком; фигурными скобками обозначены явления, наблюдавшиеся между сроками (за 1-3 часа до срока); квадратными скобками обозначены град или гололедные отложения с указанием их диаметра в мм.
Облачность - указаны через наклонную черту общая и нижняя облачность в баллах и высота нижней границы облаков в метрах; квадратными скобками обозначены формы облаков: Ci - перистые, Cs - перисто-слоистые, Cc - перисто-кучевые, Ac - высококучевые, As - высокослоистые, Sc - слоисто-кучевые, Ns - слоисто-дождевые, Cu - кучевые, Cb - кучево-дождевые. Подробнее классификацию облаков см. в Атласе облаков (PDF).
T - Температура воздуха - температура, измеренная на высоте 2 м над землей.
Td - Температура точки росы - температура, при понижении до которой содержащийся в воздухе водяной пар достигнет насыщения.
f - Относительная влажность воздуха - влажноcть воздуха, измеренная на высоте 2 м над землей.
Te - Эффективная температура - температура, которую ощущает одетый по сезону человек в тени. Характеристика душности погоды. При расчете учитывается влияние влажности воздуха и скорости ветра на теплоощущения человека.
Tes - Эффективная температура на солнце - температура, которую ощущает человек, с поправкой на солнечный нагрев. Характеристика знойности погоды. Зависит от высоты солнца над горизонтом, облачности и скорости ветра. Ночью, в пасмурную погоду, а также при ветре 12 м/с и более поправка равна нулю.
P - Атмосферное давление - приведенное к уровню моря атмосферное давление.
Po - Атмосферное давление - измеренное на уровне метеостанции атмосферное давление.
Tmin - Минимальная температура - минимум температуры воздуха на высоте 2 м над землей.
Tmax - Максимальная температура - максимум температуры воздуха на высоте 2 м над землей.
R - Количество осадков - Количество выпавших осадков за период времени, мм. При наведении курсора мыши на число - период времени, за который выпало указанное количество осадков.
R24 - Количество осадков - Количество выпавших осадков за 24 часа, мм.
S - Снежный покров - Высота снежного покрова, см. При наведении курсора мыши на число - состояние снежного покрова и степень покрытия местности в баллах.